sat.trackr.live / text

‹ back to catalog

STARLINK-2579

NORAD 48459 · 2021-040AH

PAYLOAD ACTIVE UNKNOWN

§ Identity

Operator
Country
US
Launch date
2021-05-09
Launch site
AFETR
Launch vehicle
Mass (kg)
RCS (m²)

Purposes: comms

External: N2YO · Heavens-Above · Gunter

§ Orbital elements

Epoch: 2026-09-19T19:40:50.356992Z

Period
94.01 min
Inclination
53.1617°
Eccentricity
0.0001170
Mean motion
15.31715583 rev/d
Perigee alt
469.9 km
Apogee alt
471.5 km
Semi-major
6,848.8 km
B*
6.9693e-5
RAAN
354.7131°
Arg perigee
92.3031°
Mean anomaly
267.8104°
Rev number
29,644

§ Raw data

STARLINK-25791 48459U 21040AH  26262.82002728  .00001799  00000+0  69693-4 0  99962 48459  53.1617 354.7131 0001170  92.3031 267.8104 15.31715583296448

JSON: /api/v1/satellites/48459 · /tle

For live sub-satellite position, see the globe view (requires WebGL).

§ Visibility from observer

Set your observer location to see the next 7 days of passes ≥ 10°. The values pass through the URL so the page stays shareable.

No JS? Fill the form by hand. The geolocation button needs JavaScript.